Temperature
18 18 18 18 18 18 18 18 18 18 18 18 18 18 17 17 17 17 18 18 17 17 17 17 17 17 17 17 17 17 17 17 17 17 17 16 16 16 16 16 16 16 16
18 18 18 18 18 18 18 18 18 18 18 18 18 18 17 17 17 17 17 17 17 17 17 17 17 17 17 17 17 17 17 17 17 17 17 16 16 16 16 16 16 16 16
18 18 18 18 18 18 18 18 17 18 18 18 18 18 17 17 17 17 17 17 17 17 17 17 17 17 17 17 17 17 17 17 17 17 17 17 16 16 16 16 16 16 16
18 18 18 18 18 18 17 18 17 17 17 17 17 17 17 17 17 17 17 17 17 17 17 17 17 17 17 17 17 17 17 17 17 17 17 17 16 16 16 16 16 16 16
18 18 18 18 18 17 17 17 17 17 17 17 17 17 17 17 17 17 17 17 17 17 17 17 17 17 17 17 17 17 17 17 17 17 17 17 17 17 16 16 16 16 16
18 18 18 18 18 17 17 17 17 17 17 17 17 17 17 17 17 17 17 17 17 17 17 17 17 17 17 17 17 17 17 17 16 16 16 16 17 17 17 17 16 16 16
18 18 18 18 18 18 17 17 17 17 17 17 17 17 17 17 17 17 17 17 17 17 17 17 17 17 17 17 17 17 17 17 17 16 16 16 17 17 16 16 16 16 16
18 18 18 18 18 18 17 17 17 17 17 17 17 17 17 17 17 17 17 17 17 17 17 17 17 17 17 17 17 17 17 17 17 16 16 16 16 16 16 16 16 16 16
18 18 18 18 18 18 18 17 17 17 17 17 17 17 17 17 17 17 17 17 17 17 17 17 17 17 17 17 17 17 17 17 16 16 16 16 16 16 16 16 16 16 16
18 18 18 18 18 18 18 18 17 17 17 17 17 17 17 17 17 17 17 17 17 17 17 17 17 17 17 17 17 17 17 17 17 16 16 16 16 16 16 16 16 16 16
18 18 18 18 18 18 18 18 17 17 17 17 17 17 17 17 17 16 16 17 17 17 17 17 17 17 17 17 17 17 17 16 17 16 16 16 16 16 16 16 16 16 16
18 18 18 18 18 18 18 17 17 17 17 17 17 17 17 17 17 17 16 17 17 17 17 17 17 17 17 17 17 17 16 16 16 16 16 16 16 16 16 16 16 16 16
18 18 18 18 18 17 18 17 17 17 17 17 17 17 17 17 17 17 16 16 16 17 17 17 17 17 17 17 16 16 16 16 16 16 16 16 16 16 16 16 16 16 16
18 18 18 18 17 17 17 17 17 17 17 17 17 17 17 17 17 16 16 16 16 16 16 17 17 17 17 16 16 16 16 16 16 16 16 16 16 16 16 16 16 16 16
18 18 18 18 17 17 17 17 17 17 17 17 17 17 17 17 16 16 16 16 16 16 16 16 16 17 16 16 16 16 16 16 16 16 16 16 16 16 16 16 16 16 16
18 18 18 17 17 17 17 17 17 17 17 17 17 17 17 16 16 16 16 16 16 16 15 16 16 16 16 16 16 16 16 16 16 16 16 16 16 16 16 16 16 16 15
18 18 18 17 17 17 17 17 17 17 16 16 16 16 16 16 16 16 16 16 16 15 15 16 16 16 16 16 16 16 15 15 15 15 15 15 15 15 15 16 16 15 15
18 18 17 17 17 17 17 17 17 16 16 16 16 16 16 16 16 16 16 16 16 15 15 15 16 16 16 16 15 15 15 15 15 15 15 15 15 15 15 15 15 15 15
18 17 17 17 17 17 17 16 16 16 16 16 16 16 16 16 16 16 16 15 15 15 15 15 15 15 15 15 15 15 15 15 15 15 15 15 15 15 15 15 15 15 15
18 17 17 17 17 16 16 16 16 16 16 16 16 16 15 15 15 15 15 15 15 15 15 15 15 15 15 15 15 15 15 14 14 14 14 14 14 14 14 14 14 14 14
17 17 17 17 16 16 16 16 16 16 16 16 15 15 15 15 15 15 15 15 15 15 14 14 14 14 14 14 14 14 14 14 14 14 14 14 14 14 14 14 14 14 14
17 17 17 16 16 16 16 16 15 15 15 15 15 15 15 15 15 15 15 14 14 14 14 14 14 14 14 14 14 14 14 14 14 14 14 14 14 14 14 14 14 14 14
17 16 16 16 16 16 16 15 15 15 15 15 15 15 15 15 15 14 14 14 14 14 14 14 14 14 14 14 13 13 13 13 13 13 13 13 14 13 13 13 13 13 13
16 16 16 16 15 15 15 15 15 15 15 15 15 15 14 14 14 14 14 14 14 14 14 14 13 13 13 13 13 13 13 13 13 13 13 13 13 13 13 13 13 13 13
16 16 15 15 15 15 15 15 15 15 14 14 14 14 14 14 14 14 14 14 14 13 13 13 13 13 13 13 13 13 13 13 12 13 13 12 12 12 13 13 13 13 12
15 15 15 15 15 15 15 14 14 14 14 14 14 14 14 14 13 13 13 13 13 13 13 13 13 13 13 12 12 12 12 12 12 12 12 12 12 12 12 12 12 12 12
Wind_Speed
2 2 2 2 2 2 2 1 1 1 1 1 1 3 3 4 5 5 6 9 11 11 11 11 11 11 12 12 11 11 10 10 9 9 9 9 9 8 8 8 7 7 7
4 3 2 2 1 1 1 1 1 1 0 0 1 2 3 3 5 6 7 8 10 11 11 11 11 12 12 12 12 11 11 11 10 10 10 10 10 9 9 9 9 9 8
5 4 2 1 1 1 1 1 0 1 1 1 1 1 2 2 4 5 6 7 8 10 11 11 12 12 12 12 12 12 12 11 11 11 10 10 11 10 10 10 10 10 10
5 4 3 2 2 1 1 1 1 1 0 0 0 1 1 2 3 4 5 6 7 8 9 11 12 13 13 13 13 13 13 12 12 12 12 11 11 11 11 11 11 11 11
6 5 3 3 3 2 1 2 2 2 1 0 0 0 1 1 2 3 4 6 7 8 8 9 11 12 13 13 13 13 13 13 12 12 12 12 12 11 11 11 12 12 12
6 5 4 3 3 2 2 2 2 1 1 1 0 1 1 2 1 2 4 4 5 7 7 8 9 10 13 13 13 12 13 13 13 13 13 12 12 12 12 12 12 12 12
6 5 3 3 3 3 3 3 2 2 1 1 1 1 2 2 2 2 2 2 3 5 5 6 7 8 8 10 12 13 13 13 13 13 13 12 12 12 12 13 13 12 12
5 5 4 4 3 3 3 3 3 2 1 2 2 1 1 2 2 2 1 2 3 3 3 5 5 6 6 6 8 11 12 13 13 13 13 12 12 12 13 13 13 13 13
5 5 4 4 3 4 3 4 4 4 3 2 2 2 2 2 2 2 2 2 2 2 3 4 5 6 6 6 7 8 10 11 12 12 12 13 12 12 13 13 14 14 13
4 5 5 4 4 3 3 4 4 4 4 3 2 2 2 2 2 1 2 2 2 2 3 3 4 5 6 6 6 7 8 9 9 10 11 11 12 12 13 13 14 14 14
3 3 4 4 3 3 3 3 3 4 4 4 3 2 2 1 2 2 2 2 2 2 3 3 3 4 5 5 6 7 8 8 8 9 9 9 10 12 13 13 13 13 14
2 3 3 3 4 3 4 4 4 4 4 4 3 3 3 2 3 3 3 3 3 2 2 3 3 3 4 5 6 8 8 8 9 9 9 10 11 11 12 13 14 14 13
2 3 3 3 3 4 4 3 4 4 5 5 4 4 4 4 3 3 3 3 3 2 2 2 3 3 3 4 6 8 8 9 10 10 10 11 11 11 12 13 13 13 13
4 3 3 3 3 4 4 3 3 4 4 5 5 5 4 4 4 4 3 3 2 2 2 3 2 3 3 4 6 6 5 7 8 9 9 10 10 10 11 11 11 12 13
3 3 3 3 3 3 3 3 3 3 3 4 4 4 4 4 4 4 4 4 3 3 3 3 2 2 3 4 4 4 4 5 6 6 7 8 8 8 9 9 9 10 12
3 3 3 3 3 3 3 3 2 2 3 3 3 3 4 4 3 3 4 4 4 4 4 3 3 3 3 3 4 4 4 5 6 6 7 7 8 8 8 9 9 10 11
4 4 4 4 4 3 3 3 3 3 3 3 3 3 4 3 3 3 3 4 4 4 5 4 2 2 2 3 2 3 3 4 4 5 6 7 8 8 8 8 9 9 10
4 4 4 3 3 3 3 4 4 4 4 3 3 3 4 3 3 3 3 4 4 5 5 5 3 2 3 3 2 2 2 3 3 5 6 7 7 8 8 8 8 9 9
4 4 4 4 4 4 4 4 4 3 3 4 4 4 4 3 4 3 3 4 4 4 4 4 3 2 1 1 1 2 2 2 3 4 4 5 6 7 7 8 8 9 9
5 4 4 4 4 3 3 3 3 3 3 3 4 4 4 5 5 4 4 4 4 3 3 3 3 2 1 1 1 1 2 2 3 2 3 3 4 5 6 7 7 7 8
6 5 4 4 3 3 3 3 3 3 3 4 4 4 5 5 5 4 3 4 4 3 2 2 2 2 1 1 2 2 3 3 3 2 2 3 3 3 3 4 5 5 6
5 4 5 5 4 4 4 4 3 3 3 4 4 4 4 4 4 4 4 4 5 4 4 3 3 3 3 3 3 2 2 2 3 1 2 3 2 2 3 3 4 5 6
5 5 5 5 5 5 5 5 5 3 4 4 4 4 4 3 3 3 3 2 3 4 6 5 4 4 4 4 3 3 3 3 4 2 2 3 2 2 2 3 3 3 4
5 5 5 5 4 5 5 5 5 3 3 3 4 4 4 4 3 3 3 2 3 3 4 4 4 5 5 4 4 4 4 3 2 1 2 2 2 2 2 2 2 3 4
5 5 4 4 5 5 5 5 4 2 2 3 3 3 4 4 4 3 3 3 3 3 2 3 3 3 3 3 3 2 2 2 2 2 2 2 1 2 2 2 2 2 3
5 5 4 4 5 4 4 4 4 2 2 2 2 2 3 3 2 3 3 4 4 4 2 1 1 2 2 2 2 4 4 4 2 2 3 2 1 1 1 1 1 1 1
Wind_Direction
142 139 140 143 145 146 141 131 125 124 109 140 188 189 194 203 207 211 218 221 221 222 221 216 212 211 210 211 213 214 214 215 214 215 218 222 223 218 215 213 212 211 211
165 155 149 152 173 178 181 173 180 142 117 146 177 194 198 206 219 221 223 224 223 223 222 219 218 218 218 218 218 217 218 220 220 221 223 226 226 222 222 221 219 217 216
177 172 157 169 212 200 174 153 97 96 132 139 176 213 217 224 225 228 226 226 229 229 226 226 224 223 224 225 224 223 222 223 223 224 226 228 228 225 225 225 223 219 218
189 178 169 187 203 167 146 136 125 114 127 161 209 267 241 233 238 234 231 230 230 230 232 230 228 228 229 230 229 228 225 224 227 228 229 231 230 227 227 227 226 223 222
187 181 186 197 188 165 162 172 143 152 170 192 249 293 305 267 258 248 238 236 231 231 234 236 233 233 234 235 234 232 227 226 228 230 231 230 229 227 227 229 227 225 225
189 188 193 190 177 162 171 169 158 155 165 173 201 347 324 295 276 260 254 246 237 236 236 239 240 241 239 238 237 235 233 233 231 231 233 233 231 227 226 228 226 226 227
191 187 193 182 176 180 186 175 161 165 186 145 107 335 324 313 284 266 258 246 244 240 237 239 239 238 242 239 239 238 239 240 237 235 232 231 231 229 228 229 228 226 226
193 193 189 192 186 182 182 179 168 166 190 173 154 146 318 329 319 285 258 239 253 250 244 242 237 233 238 242 243 241 240 240 240 236 231 229 230 231 231 229 227 226 225
191 191 190 190 188 187 197 199 189 185 196 202 181 166 175 238 299 314 280 262 258 245 246 244 235 234 236 241 247 251 249 246 243 239 235 232 232 231 232 232 230 227 225
189 193 195 193 193 193 200 209 199 195 187 203 202 206 199 179 195 297 312 286 268 256 256 253 245 240 238 239 243 250 250 247 245 243 242 238 235 235 233 234 232 229 228
194 199 194 188 196 201 206 203 191 195 200 203 199 192 204 211 205 214 273 301 305 275 267 262 256 252 249 245 246 251 244 248 250 245 243 244 244 243 240 239 237 234 231
203 209 197 194 203 206 209 210 202 198 204 204 204 196 190 191 203 205 233 260 278 281 271 262 255 251 248 247 251 254 248 249 251 251 250 250 251 250 248 247 242 238 234
216 222 210 204 211 213 212 204 201 208 207 205 209 213 212 218 200 196 212 241 255 273 277 261 254 259 256 253 255 254 253 250 248 249 249 252 253 252 252 251 248 242 238
219 217 206 209 217 215 212 200 203 215 211 214 221 216 218 220 209 207 204 208 251 271 265 268 268 254 257 250 251 246 254 251 247 247 249 253 253 251 249 248 247 243 239
211 201 197 199 214 215 207 196 211 219 209 218 223 217 220 221 212 214 209 203 208 251 267 258 255 264 261 245 245 241 251 257 251 249 250 252 250 248 245 243 242 240 235
204 190 194 201 209 214 206 200 217 224 213 227 224 219 226 227 215 212 211 212 212 219 250 251 239 263 268 260 248 238 246 260 259 257 254 253 252 249 246 244 241 239 234
193 198 202 206 205 209 209 205 216 219 217 234 234 225 232 223 219 218 212 212 214 212 240 261 245 256 244 258 267 247 251 251 261 261 261 259 256 251 250 248 243 239 233
193 196 198 203 212 216 213 211 223 228 223 229 240 232 241 231 227 227 218 221 222 217 225 255 260 245 247 257 253 244 259 251 254 261 261 262 259 254 251 248 245 240 234
196 196 196 206 215 219 220 223 224 230 231 234 238 235 241 231 235 232 223 228 232 228 221 233 250 244 260 285 283 270 263 265 266 268 261 257 257 256 251 246 244 239 234
195 200 204 212 215 216 218 223 228 232 238 244 243 239 240 232 232 230 228 228 224 218 215 226 240 247 256 282 274 272 279 264 260 274 276 266 263 260 258 252 246 239 232
201 200 201 211 215 216 222 216 223 235 241 252 253 247 244 231 228 224 228 223 211 207 207 220 238 235 241 257 254 248 257 267 250 242 265 271 273 276 273 263 250 240 227
202 199 205 208 215 228 223 212 210 227 239 246 255 259 253 241 238 234 232 218 204 204 209 209 224 242 249 238 235 237 240 264 273 247 245 266 251 267 275 263 262 244 229
198 204 212 213 221 228 218 214 217 221 235 245 249 258 263 262 248 248 249 232 217 208 200 196 210 232 241 236 226 232 231 239 250 254 227 262 260 261 273 270 248 235 225
202 209 215 217 222 232 218 214 217 215 235 250 253 250 249 262 257 233 223 236 248 243 219 207 213 228 238 236 225 225 228 235 262 248 207 250 266 265 283 275 242 221 217
202 207 210 213 222 236 223 218 202 192 225 261 271 265 252 249 254 217 202 219 246 262 244 197 204 233 244 242 215 206 209 214 249 246 213 227 258 274 279 272 267 220 210
202 202 211 213 215 229 228 214 189 183 206 256 290 294 277 253 238 200 207 212 228 247 259 283 287 297 287 272 213 213 214 217 224 235 206 202 219 228 273 270 279 243 222
Height
1547 1549 1551 1552 1554 1556 1557 1559 1560 1561 1562 1563 1564 1565 1566 1567 1568 1569 1570 1570 1571 1571 1572 1572 1573 1574 1575 1576 1577 1577 1578 1579 1579 1580 1581 1582 1583 1583 1584 1584 1585 1585 1586
1548 1550 1552 1553 1555 1556 1558 1559 1560 1561 1562 1563 1564 1565 1566 1567 1567 1568 1569 1570 1570 1571 1571 1572 1572 1573 1574 1575 1575 1576 1577 1578 1578 1579 1580 1580 1581 1582 1582 1583 1583 1584 1585
1549 1551 1553 1554 1556 1557 1558 1559 1560 1561 1562 1563 1564 1565 1565 1566 1567 1567 1568 1568 1569 1569 1570 1570 1571 1572 1573 1573 1574 1575 1575 1576 1577 1577 1578 1579 1579 1580 1580 1581 1582 1582 1583
1550 1552 1553 1555 1556 1557 1558 1559 1560 1561 1562 1562 1563 1563 1564 1565 1565 1566 1566 1567 1567 1568 1568 1569 1570 1570 1571 1571 1572 1573 1573 1574 1575 1575 1576 1577 1577 1578 1578 1579 1579 1580 1581
1551 1552 1554 1555 1556 1557 1558 1559 1559 1560 1561 1562 1562 1563 1563 1563 1564 1564 1564 1565 1565 1566 1566 1567 1568 1568 1569 1569 1570 1570 1571 1572 1572 1573 1574 1574 1575 1575 1576 1576 1577 1577 1578
1551 1552 1553 1555 1556 1557 1557 1558 1559 1559 1560 1561 1561 1561 1561 1562 1562 1562 1563 1563 1563 1564 1564 1565 1565 1566 1566 1567 1567 1568 1569 1569 1570 1570 1571 1572 1572 1573 1573 1574 1574 1575 1576
1551 1552 1553 1554 1555 1556 1557 1557 1558 1558 1559 1560 1560 1560 1560 1560 1560 1560 1561 1561 1562 1562 1563 1563 1563 1563 1564 1564 1565 1565 1566 1566 1567 1568 1568 1569 1570 1570 1571 1571 1572 1572 1573
1550 1551 1552 1553 1554 1555 1555 1556 1557 1557 1558 1558 1559 1559 1559 1560 1559 1559 1559 1559 1560 1560 1560 1561 1561 1561 1561 1562 1562 1563 1563 1564 1564 1565 1566 1566 1567 1567 1568 1568 1569 1570 1570
1549 1550 1551 1552 1552 1553 1554 1554 1555 1555 1556 1557 1557 1558 1558 1557 1557 1557 1557 1557 1558 1558 1558 1558 1559 1559 1559 1559 1559 1560 1560 1561 1561 1562 1563 1563 1564 1564 1565 1565 1566 1566 1567
1548 1549 1550 1550 1551 1552 1552 1552 1553 1554 1554 1554 1555 1556 1556 1556 1556 1555 1555 1555 1556 1556 1556 1556 1556 1556 1556 1556 1557 1557 1557 1558 1558 1559 1559 1560 1560 1561 1561 1562 1563 1563 1563
1546 1547 1548 1549 1549 1550 1550 1550 1551 1551 1552 1552 1553 1553 1553 1554 1554 1554 1553 1553 1553 1553 1553 1553 1553 1553 1553 1553 1553 1554 1554 1555 1555 1555 1556 1556 1557 1557 1558 1558 1559 1559 1560
1545 1545 1546 1547 1547 1548 1548 1548 1549 1549 1549 1549 1550 1550 1551 1551 1551 1551 1551 1550 1550 1551 1551 1551 1550 1550 1550 1550 1551 1551 1551 1551 1551 1552 1553 1553 1553 1554 1554 1555 1555 1555 1556
1543 1543 1544 1544 1545 1545 1546 1546 1546 1546 1546 1547 1547 1547 1548 1548 1548 1549 1549 1548 1548 1548 1548 1548 1548 1548 1548 1548 1548 1548 1548 1548 1548 1549 1549 1549 1550 1550 1550 1551 1551 1551 1552
1540 1541 1542 1542 1543 1543 1543 1543 1543 1543 1543 1543 1544 1544 1544 1545 1545 1546 1546 1546 1545 1545 1545 1545 1545 1545 1544 1544 1544 1545 1545 1544 1545 1545 1545 1546 1546 1546 1546 1546 1547 1547 1548
1538 1539 1539 1539 1540 1541 1541 1541 1541 1540 1541 1541 1541 1541 1541 1541 1542 1542 1543 1543 1544 1542 1541 1541 1542 1542 1542 1541 1541 1541 1541 1541 1541 1541 1542 1542 1542 1542 1542 1542 1542 1543 1543
1535 1536 1537 1537 1537 1538 1538 1538 1538 1538 1538 1538 1538 1538 1538 1538 1538 1539 1539 1540 1540 1540 1539 1538 1539 1539 1539 1538 1538 1537 1537 1537 1537 1537 1538 1538 1538 1538 1538 1538 1538 1539 1539
1532 1533 1534 1534 1535 1535 1535 1535 1535 1535 1535 1535 1535 1535 1535 1535 1535 1535 1535 1536 1536 1536 1535 1535 1535 1535 1535 1535 1534 1534 1534 1534 1534 1534 1534 1534 1534 1534 1534 1534 1534 1534 1534
1529 1530 1531 1531 1532 1532 1532 1532 1532 1532 1532 1532 1532 1532 1532 1532 1532 1532 1532 1532 1532 1533 1533 1532 1532 1532 1532 1531 1531 1531 1531 1530 1530 1530 1530 1530 1530 1530 1530 1530 1530 1530 1530
1526 1527 1528 1528 1528 1529 1529 1529 1529 1529 1529 1529 1529 1528 1528 1529 1529 1529 1528 1528 1529 1529 1529 1529 1528 1528 1528 1528 1528 1527 1527 1527 1527 1527 1526 1526 1526 1526 1526 1526 1526 1526 1526
1522 1523 1524 1525 1525 1526 1526 1526 1526 1526 1526 1525 1525 1525 1525 1525 1525 1525 1525 1525 1525 1525 1525 1525 1525 1524 1524 1524 1524 1523 1523 1523 1523 1523 1522 1522 1522 1522 1522 1522 1522 1522 1522
1518 1519 1520 1521 1521 1522 1522 1522 1522 1522 1522 1522 1521 1521 1521 1521 1521 1521 1520 1520 1521 1520 1521 1521 1521 1521 1520 1520 1520 1520 1519 1519 1519 1519 1519 1518 1518 1517 1517 1517 1517 1517 1517
1513 1514 1515 1516 1517 1517 1518 1518 1518 1518 1518 1518 1517 1517 1517 1517 1517 1517 1516 1516 1517 1517 1516 1517 1517 1517 1517 1517 1517 1516 1516 1516 1515 1516 1515 1514 1514 1513 1513 1513 1513 1513 1513
1509 1510 1511 1512 1512 1513 1513 1514 1514 1514 1514 1514 1513 1513 1513 1513 1513 1512 1512 1512 1512 1512 1513 1513 1512 1513 1513 1513 1513 1513 1512 1512 1512 1512 1512 1510 1510 1509 1509 1509 1509 1509 1509
1504 1505 1507 1507 1508 1509 1510 1510 1510 1510 1510 1509 1509 1509 1508 1508 1508 1508 1508 1507 1507 1507 1508 1508 1508 1508 1509 1509 1509 1509 1509 1509 1508 1508 1508 1507 1506 1506 1506 1505 1505 1505 1505
1500 1501 1502 1503 1504 1505 1506 1506 1506 1506 1505 1505 1505 1505 1504 1504 1504 1504 1503 1502 1503 1503 1504 1504 1504 1504 1504 1505 1505 1505 1505 1505 1504 1504 1504 1503 1502 1502 1502 1502 1502 1502 1502
1495 1496 1497 1498 1500 1500 1501 1502 1502 1501 1501 1501 1501 1501 1500 1500 1499 1499 1498 1498 1497 1498 1499 1499 1499 1500 1500 1500 1500 1500 1500 1500 1500 1499 1499 1500 1499 1499 1498 1498 1498 1498 1498